When you browse on this site, cookies collect data to enhance your experience and personalize the content and advertising you see.
Visit our Privacy Policy to learn more. By continuing to use the site, you agree to this use of cookies and data.
  • In Spain
  • List of Countries
  • For 7 days
  • Water Temperature
  • Satellite Maps
  • Weather Map
  • Weather Widgets
  • user-avatar
    Login

    Hourly Weather Dalat

    Today, 19 December, Wednesday

    Time Temperature Precipitation Wind Pressure Humidity
    00:00 +16°C° 0 mm 1 mps 654 mmHg 93%
    01:00 +16°C° 0 mm 1 mps 654 mmHg 93%
    02:00 +16°C° 0 mm 1 mps 654 mmHg 94%
    03:00 +16°C° 0 mm 1 mps 654 mmHg 94%
    04:00 +16°C° 0 mm 1 mps 654 mmHg 94%
    05:00 +16°C° 0 mm 1 mps 654 mmHg 92%
    06:00 +16°C° 0 mm 1 mps 654 mmHg 91%
    07:00 +18°C° 0 mm 1 mps 655 mmHg 86%
    08:00 +21°C° 0 mm 1 mps 656 mmHg 77%
    09:00 +23°C° 0 mm 1 mps 656 mmHg 68%
    10:00 +25°C° 0 mm 2 mps 657 mmHg 59%
    11:00 +26°C° 0.1 mm 2 mps 657 mmHg 60%
    12:00 +26°C° 0.1 mm 2 mps 656 mmHg 61%
    13:00 +26°C° 0.1 mm 2 mps 656 mmHg 61%
    14:00 +25°C° 0.2 mm 2 mps 655 mmHg 66%
    15:00 +24°C° 0.2 mm 2 mps 655 mmHg 71%
    16:00 +24°C° 0.2 mm 2 mps 654 mmHg 75%
    17:00 +22°C° 0.1 mm 1 mps 654 mmHg 82%
    18:00 +21°C° 0.1 mm 1 mps 654 mmHg 88%
    19:00 +19°C° 0.1 mm 1 mps 654 mmHg 94%
    20:00 +19°C° 0 mm 1 mps 654 mmHg 95%
    21:00 +18°C° 0 mm 1 mps 654 mmHg 96%
    22:00 +18°C° 0 mm 1 mps 655 mmHg 96%
    23:00 +18°C° 0 mm 1 mps 654 mmHg 96%

    Tomorrow, 20 December, Thursday

    Time Temperature Precipitation Wind Pressure Humidity
    00:00 +18°C° 0 mm 1 mps 654 mmHg 96%
    01:00 +16°C° 0 mm 1 mps 654 mmHg 96%
    02:00 +16°C° 0 mm 1 mps 654 mmHg 95%
    03:00 +16°C° 0 mm 1 mps 654 mmHg 95%
    04:00 +16°C° 0 mm 1 mps 653 mmHg 95%
    05:00 +16°C° 0 mm 1 mps 654 mmHg 93%
    06:00 +18°C° 0 mm 1 mps 654 mmHg 91%
    07:00 +18°C° 0 mm 1 mps 654 mmHg 89%
    08:00 +21°C° 0 mm 1 mps 655 mmHg 78%
    09:00 +24°C° 0 mm 1 mps 656 mmHg 68%
    10:00 +26°C° 0 mm 1 mps 657 mmHg 57%
    11:00 +27°C° 0 mm 1 mps 656 mmHg 58%
    12:00 +27°C° 0 mm 1 mps 656 mmHg 58%
    13:00 +27°C° 0 mm 1 mps 655 mmHg 58%
    14:00 +26°C° 0.1 mm 1 mps 654 mmHg 64%
    15:00 +25°C° 0.1 mm 1 mps 654 mmHg 69%
    16:00 +24°C° 0.1 mm 1 mps 653 mmHg 75%
    17:00 +23°C° 0.3 mm 1 mps 653 mmHg 82%
    18:00 +21°C° 0.3 mm 1 mps 653 mmHg 89%
    19:00 +20°C° 0.3 mm 1 mps 653 mmHg 95%
    20:00 +19°C° 0 mm 1 mps 653 mmHg 96%
    21:00 +19°C° 0 mm 1 mps 653 mmHg 97%
    22:00 +19°C° 0 mm 1 mps 653 mmHg 97%
    23:00 +18°C° 0 mm 1 mps 653 mmHg 98%

    Day after tomorrow, 21 December, Friday

    Time Temperature Precipitation Wind Pressure Humidity
    00:00 +18°C° 0 mm 1 mps 653 mmHg 98%
    01:00 +18°C° 0 mm 1 mps 653 mmHg 98%
    02:00 +18°C° 0 mm 1 mps 652 mmHg 98%
    03:00 +15°C° 0 mm 0 mps 652 mmHg 98%
    04:00 +15°C° 0 mm 0 mps 652 mmHg 97%
    05:00 +16°C° 0 mm 1 mps 652 mmHg 96%
    06:00 +16°C° 0 mm 1 mps 652 mmHg 94%
    07:00 +18°C° 0 mm 1 mps 653 mmHg 93%
    08:00 +20°C° 0 mm 1 mps 654 mmHg 80%
    09:00 +23°C° 0 mm 1 mps 655 mmHg 67%
    10:00 +26°C° 0 mm 1 mps 656 mmHg 55%
    11:00 +26°C° 0 mm 1 mps 655 mmHg 52%
    12:00 +27°C° 0 mm 1 mps 655 mmHg 50%
    13:00 +28°C° 0 mm 1 mps 654 mmHg 47%
    14:00 +27°C° 0 mm 1 mps 654 mmHg 53%
    15:00 +26°C° 0 mm 1 mps 653 mmHg 59%
    16:00 +25°C° 0 mm 1 mps 653 mmHg 64%
    17:00 +23°C° 0 mm 1 mps 652 mmHg 74%
    18:00 +21°C° 0 mm 1 mps 652 mmHg 84%
    19:00 +19°C° 0 mm 1 mps 652 mmHg 94%
    20:00 +19°C° 0 mm 1 mps 653 mmHg 94%
    21:00 +19°C° 0 mm 1 mps 653 mmHg 95%
    22:00 +19°C° 0 mm 1 mps 653 mmHg 96%
    23:00 +18°C° 0 mm 1 mps 653 mmHg 96%

    22 December, Saturday

    Time Temperature Precipitation Wind Pressure Humidity
    00:00 +18°C° 0 mm 1 mps 652 mmHg 97%
    01:00 +18°C° 0 mm 1 mps 652 mmHg 97%
    02:00 +18°C° 0 mm 1 mps 652 mmHg 97%
    03:00 +16°C° 0 mm 1 mps 651 mmHg 97%
    04:00 +16°C° 0 mm 1 mps 651 mmHg 97%
    05:00 +16°C° 0 mm 1 mps 651 mmHg 95%
    06:00 +16°C° 0 mm 1 mps 652 mmHg 92%
    07:00 +16°C° 0 mm 1 mps 652 mmHg 89%
    08:00 +20°C° 0 mm 1 mps 653 mmHg 74%
    09:00 +23°C° 0 mm 1 mps 654 mmHg 60%
    10:00 +25°C° 0 mm 1 mps 655 mmHg 45%
    11:00 +26°C° 0 mm 1 mps 655 mmHg 43%
    12:00 +26°C° 0 mm 1 mps 654 mmHg 42%
    13:00 +27°C° 0 mm 1 mps 653 mmHg 40%
    14:00 +25°C° 0 mm 1 mps 653 mmHg 47%
    15:00 +24°C° 0 mm 1 mps 652 mmHg 53%
    16:00 +23°C° 0 mm 1 mps 652 mmHg 60%
    17:00 +21°C° 0.2 mm 1 mps 652 mmHg 66%
    18:00 +20°C° 0.2 mm 1 mps 652 mmHg 73%
    19:00 +19°C° 0.2 mm 1 mps 652 mmHg 79%
    20:00 +19°C° 0.6 mm 1 mps 652 mmHg 81%
    21:00 +18°C° 0.6 mm 1 mps 652 mmHg 84%
    22:00 +18°C° 0.6 mm 1 mps 652 mmHg 86%
    23:00 +18°C° 1.2 mm 1 mps 652 mmHg 89%

    23 December, Sunday

    Time Temperature Precipitation Wind Pressure Humidity
    00:00 +18°C° 1.2 mm 1 mps 652 mmHg 93%
    01:00 +18°C° 1.2 mm 1 mps 651 mmHg 96%
    02:00 +18°C° 1.5 mm 1 mps 651 mmHg 96%
    03:00 +18°C° 1.5 mm 1 mps 651 mmHg 97%
    04:00 +18°C° 1.5 mm 1 mps 650 mmHg 98%
    05:00 +18°C° 1.4 mm 1 mps 651 mmHg 98%
    06:00 +18°C° 1.4 mm 1 mps 651 mmHg 98%
    07:00 +18°C° 1.4 mm 1 mps 652 mmHg 98%
    08:00 +19°C° 0.5 mm 1 mps 652 mmHg 95%
    09:00 +19°C° 0.5 mm 2 mps 652 mmHg 93%
    10:00 +19°C° 0.5 mm 2 mps 653 mmHg 90%
    11:00 +20°C° 0.1 mm 2 mps 652 mmHg 85%
    12:00 +21°C° 0.1 mm 2 mps 652 mmHg 80%
    13:00 +23°C° 0.1 mm 2 mps 651 mmHg 74%
    14:00 +21°C° 0.4 mm 2 mps 651 mmHg 79%
    15:00 +20°C° 0.4 mm 2 mps 651 mmHg 83%
    16:00 +19°C° 0.4 mm 2 mps 650 mmHg 87%
    17:00 +19°C° 0.7 mm 2 mps 650 mmHg 90%
    18:00 +18°C° 0.7 mm 2 mps 651 mmHg 93%
    19:00 +17°C° 0.7 mm 2 mps 651 mmHg 96%
    20:00 +17°C° 0.8 mm 2 mps 651 mmHg 97%
    21:00 +17°C° 0.8 mm 2 mps 651 mmHg 97%
    22:00 +17°C° 0.8 mm 2 mps 652 mmHg 97%
    23:00 +17°C° 1 mm 2 mps 651 mmHg 98%

    24 December, Monday

    Time Temperature Precipitation Wind Pressure Humidity
    00:00 +18°C° 1 mm 1 mps 651 mmHg 98%
    01:00 +18°C° 1 mm 1 mps 651 mmHg 98%
    02:00 +18°C° 1.3 mm 1 mps 651 mmHg 98%
    03:00 +18°C° 1.3 mm 1 mps 651 mmHg 98%
    04:00 +16°C° 1.3 mm 1 mps 650 mmHg 98%
    05:00 +16°C° 1 mm 1 mps 651 mmHg 97%
    06:00 +18°C° 1 mm 1 mps 651 mmHg 97%
    07:00 +18°C° 1 mm 1 mps 651 mmHg 97%
    08:00 +19°C° 0.1 mm 1 mps 652 mmHg 93%
    09:00 +20°C° 0.1 mm 1 mps 652 mmHg 89%
    10:00 +21°C° 0.1 mm 1 mps 653 mmHg 86%
    11:00 +21°C° 0.1 mm 1 mps 653 mmHg 82%
    12:00 +22°C° 0.1 mm 1 mps 652 mmHg 78%
    13:00 +23°C° 0.1 mm 1 mps 652 mmHg 74%
    14:00 +22°C° 0.2 mm 1 mps 651 mmHg 78%
    15:00 +22°C° 0.2 mm 1 mps 651 mmHg 82%
    16:00 +21°C° 0.2 mm 1 mps 651 mmHg 86%
    17:00 +20°C° 0.1 mm 1 mps 651 mmHg 89%
    18:00 +20°C° 0.1 mm 1 mps 651 mmHg 92%
    19:00 +19°C° 0.1 mm 1 mps 651 mmHg 95%
    20:00 +19°C° 0 mm 1 mps 651 mmHg 96%
    21:00 +18°C° 0 mm 1 mps 652 mmHg 97%
    22:00 +18°C° 0 mm 1 mps 652 mmHg 97%
    23:00 +18°C° 0 mm 1 mps 651 mmHg 97%
    Show more